GW4377 Weather Reports


time (UTC)temp
C
wind
direction
speed
KPH
gust
KPH
rain 1hr
cm
rain 24hr
cm
rain mn
cm
humidity
%
barometer
mb
20260510201519 27 222 3.2 8.0 0.00 0.00 0.00 40 997.4
20260510200002 27 61 0.0 8.0 0.00 0.00 0.00 35 997.4
20260510170005 24 308 3.2 11.3 0.00 0.00 0.00 73 999.0
20260510160006 22 187 1.6 14.5 0.00 0.00 0.00 84 998.8
20260510150005 22 253 3.2 8.0 0.00 0.00 0.00 86 998.6
20260510141502 20 112 0.0 12.9 0.00 0.00 0.00 89 998.4
20260510140001 20 160 0.0 6.4 0.00 0.00 0.00 93 998.5
20260510134503 18 71 0.0 0.0 0.00 0.00 0.00 96 998.5
20260510131502 17 115 0.0 0.0 0.00 0.00 0.00 100 998.2
20260510130002 16 70 0.0 0.0 0.00 0.00 0.00 99 997.9
20260510124505 16 23 0.0 0.0 0.00 0.00 0.00 99 997.9
20260510120001 15 108 0.0 6.4 0.00 0.00 0.00 99 997.2
20260510110005 13 93 0.0 0.0 0.00 0.00 0.00 98 996.1
20260510103003 13 170 0.0 0.0 0.00 0.00 0.00 98 995.8
20260510100003 15 170 0.0 0.0 0.00 0.00 0.00 99 995.6
20260510073021 15 181 0.0 0.0 0.00 0.00 0.00 97 994.5
20260510070005 16 181 0.0 0.0 0.00 0.00 0.00 97 994.8
20260510061502 16 181 0.0 0.0 0.00 0.00 0.00 94 994.7
20260510041503 18 289 4.8 12.9 0.00 0.00 0.00 91 995.0
20260510040003 18 154 4.8 12.9 0.00 0.00 0.00 90 995.1
20260510034503 18 189 0.0 6.4 0.00 0.00 0.00 89 995.3
20260510030002 19 188 0.0 0.0 0.00 0.00 0.00 87 994.8
20260510013003 21 196 6.4 14.5 0.00 0.03 0.00 81 993.3
20260510011517 21 194 8.0 11.3 0.00 0.03 0.00 79 992.9
20260510010002 22 310 0.0 9.7 0.00 0.03 0.00 79 992.8
20260510000005 24 197 0.0 0.0 0.00 0.03 0.00 69 992.3
20260509230003 24 177 6.4 9.7 0.00 0.03 0.00 66 992.1
20260509221503 24 210 4.8 16.1 0.00 0.03 0.00 64 992.0
20260509220004 25 193 6.4 14.5 0.00 0.03 0.00 63 991.9
20260509214502 25 189 1.6 11.3 0.00 0.03 0.00 61 991.8
20260509211502 24 216 12.9 16.1 0.00 0.03 0.00 59 991.9
20260509210004 25 269 11.3 16.1 0.00 0.03 0.00 58 991.9